[[{"header":{"parameterUnit":"m.s-1","parameterCategory":1,"la1":30.2991,"la2":30.254,"lo1":-89.0895,"lo2":-89.0444,"dy":0.0017,"dx":0.0017,"nx":28,"ny":28,"refTime":"2025-12-23T09:00:00:Z","depth":0,"parameterNumber":2,"parameterNumberName":"U-component_of_WINDS"},"data":[0,0,0,0,0,0,0,0,0,0,0,0,0,0,0,0,0,0,0,0,0,0,0,0,0,0,0,0,0,0,0,0,0,0,0,0,0,0,0,0,0,0,0,0,0,0,0,0,0,0,0,0,0,0,0,0,0,0,-2.4764,-2.4765,0,-2.49,-2.4901,-2.4903,-2.4878,-2.4875,-2.4873,-2.4871,-2.5014,-2.502,-2.5026,0,0,0,0,0,0,0,0,0,0,0,0,0,-2.4487,-2.4492,-2.4764,-2.4765,-2.4767,-2.49,-2.4901,-2.4903,-2.4878,-2.4875,-2.4872,-2.487,-2.5012,-2.5019,-2.5027,0,0,0,0,0,0,0,0,0,0,0,0,0,-2.4613,-2.4494,-2.4763,-2.477,-2.4772,-2.4899,-2.4901,-2.4904,-2.4879,-2.4875,-2.4872,-2.4868,-2.501,-2.5019,-2.5028,-2.5157,0,0,-2.5055,-2.5059,0,0,0,0,0,0,0,0,-2.4606,-2.4624,-2.4768,-2.477,-2.4773,-2.4868,-2.4856,-2.4989,-2.488,-2.4839,-2.4871,-2.4866,-2.4969,-2.4981,-2.5015,-2.5164,-2.517,-2.5056,-2.5062,-2.5066,-2.5068,0,0,0,0,0,0,0,-2.4597,-2.4618,-2.4818,-2.477,-2.4773,-2.4768,-2.4782,-2.4881,-2.4923,-2.4842,-2.484,-2.4857,-2.4969,-2.5006,-2.5018,-2.5172,-2.5056,-2.5064,-2.507,-2.5073,-2.5435,-2.5439,0,0,0,0,0,0,-2.4586,-2.461,-2.4813,-2.4822,-2.4679,-2.4776,-2.4792,-2.4841,-2.4921,-2.493,-2.486,-2.4855,-2.4992,-2.5007,-2.5023,-2.518,-2.5066,-2.5074,-2.5079,-2.5431,-2.5436,-2.5441,0,0,0,0,0,0,-2.458,-2.4604,-2.4808,-2.4716,-2.4741,-2.4785,-2.4841,-2.4846,-2.4882,-2.4935,-2.4942,-2.4889,-2.499,-2.501,-2.5124,-2.5185,-2.5078,-2.5087,-2.5426,-2.5433,-2.5438,-2.5495,0,0,0,0,0,0,-2.4572,-2.4602,-2.4651,-2.4717,-2.4746,-2.4905,-2.4844,-2.4851,-2.4898,-2.4893,-2.4964,-2.4973,-2.4989,-2.511,-2.5133,-2.5195,-2.5094,-2.5421,-2.5429,-2.5436,-2.5488,-2.5502,-2.5515,0,0,0,0,0,-2.4562,-2.4662,-2.4653,-2.4678,-2.4807,-2.4909,-2.4926,-2.494,-2.4902,-2.4952,-2.4986,-2.4971,-2.5174,-2.5122,-2.5147,-2.5213,-2.5417,-2.5427,-2.5436,-2.5482,-2.5499,-2.5514,0,0,0,0,0,0,-2.4603,-2.4671,-2.4662,-2.4785,-2.4841,-2.4904,-2.4967,-2.4959,-2.5028,-2.502,-2.5037,-2.5054,-2.5169,-2.5203,-2.5143,-2.5343,-2.5291,-2.5305,-2.5317,-2.5334,-2.5347,-2.5337,-2.5101,0,0,0,0,0,-2.4626,-2.4701,-2.4757,-2.486,-2.4889,-2.4924,-2.4968,-2.4975,-2.5034,-2.5058,-2.51,-2.5159,-2.5237,-2.5287,-2.5362,-2.5493,-2.5509,-2.5551,-2.5564,-2.5575,-2.5588,-2.566,-2.568,-2.5471,-2.5471,-2.5471,0,0,-2.4674,-2.4721,-2.4767,-2.487,-2.4914,-2.4993,-2.4944,-2.5029,-2.5088,-2.5071,-2.5181,-2.5214,-2.5282,-2.5405,-2.5461,-2.5436,-2.5649,-2.5587,-2.5595,-2.5602,-2.5672,-2.5692,-2.5709,-2.5478,-2.5476,-2.5475,0,0,-2.4803,-2.4846,-2.4937,-2.4982,-2.5049,-2.5072,-2.5094,-2.5159,-2.518,-2.529,-2.5279,-2.5351,-2.5483,-2.5532,-2.5574,-2.5723,-2.5711,-2.5747,-2.5817,-2.5888,-2.5904,-2.5919,-2.5972,-2.5991,-2.5759,-2.5759,-2.576,0,-2.4855,-2.4972,-2.4985,-2.5072,-2.5118,-2.5105,-2.5199,-2.5243,-2.5331,-2.5364,-2.5334,-2.5501,-2.5546,-2.5681,-2.5717,-2.5751,-2.5778,-2.5738,-2.59,-2.5915,-2.5929,-2.598,-2.6,-2.5763,-2.5763,-2.5762,-2.5762,0,-2.5034,-2.5115,-2.5181,-2.5265,-2.5319,-2.5409,-2.5437,-2.549,-2.5492,-2.5518,-2.5632,-2.5685,-2.577,-2.5802,-2.5806,-2.5938,-2.5921,-2.5896,-2.5843,-2.5953,-2.6001,-2.6021,-2.5769,-2.5767,-2.5766,-2.5765,0,0,-2.519,-2.5281,-2.5305,-2.5344,-2.5418,-2.5482,-2.5572,-2.5654,-2.5699,-2.5761,-2.5838,-2.5951,-2.5929,-2.5976,-2.5986,-2.6048,-2.6163,-2.6016,-2.6018,-2.6041,-2.6313,-2.6331,-2.6353,-2.6156,-2.616,-2.6163,-2.6307,0,-2.5326,-2.5483,-2.5498,-2.5639,-2.5715,-2.5705,-2.5784,-2.5838,-2.5866,-2.5936,-2.5966,-2.6046,-2.6011,-2.604,-2.6101,-2.6136,-2.6218,-2.6126,-2.6228,-2.6232,-2.6211,-2.6378,-2.6397,-2.653,-2.6326,-2.6329,-2.6332,0,-2.5505,-2.5571,-2.5719,-2.5783,-2.5815,-2.5885,-2.5962,-2.6029,-2.6091,-2.6107,-2.6161,-2.6162,-2.6257,-2.6201,-2.6332,-2.6269,-2.6312,-2.6336,-2.6342,-2.6351,-2.6288,-2.6392,-2.6573,-2.6593,-2.6362,-2.6359,-2.6357,0,-2.5604,-2.573,-2.5835,-2.5869,-2.5946,-2.5996,-2.6031,-2.6089,-2.6138,-2.6206,-2.6238,-2.6317,-2.636,-2.6421,-2.6445,-2.6402,-2.6575,-2.6521,-2.6591,-2.6591,-2.6627,-2.6625,-2.6818,-2.6656,-2.6656,-2.6655,-2.6655,0,-2.5753,-2.5844,-2.5881,-2.5946,-2.6048,-2.6066,-2.6167,-2.62,-2.6253,-2.6325,-2.6322,-2.639,-2.6417,-2.649,-2.6509,-2.6615,-2.6635,-2.6651,-2.6654,-2.6651,-2.6648,-2.6678,-2.667,-2.6661,-2.666,-2.6659,-2.6658,0,-2.5881,-2.5909,-2.6023,-2.6087,-2.6105,-2.6178,-2.6233,-2.6297,-2.6324,-2.6415,-2.6438,-2.648,-2.6566,-2.6595,-2.67,-2.6713,-2.6836,-2.6832,-2.6814,-2.6815,-2.6883,-2.6876,-2.7102,-2.7133,-2.6951,-2.6953,-2.6955,0,-2.5974,-2.6044,-2.6115,-2.6162,-2.6199,-2.6275,-2.6325,-2.6346,-2.6398,-2.6475,-2.6529,-2.6614,-2.6683,-2.6821,-2.6862,-2.6942,-2.694,-2.7014,-2.6952,-2.6946,-2.6941,-2.6936,-2.6944,-2.7025,-2.7027,-2.7029,-2.703,0,-2.6136,-2.6147,-2.6217,-2.6293,-2.6352,-2.6414,-2.6473,-2.6513,-2.6542,-2.6601,-2.6688,-2.6742,-2.6848,-2.6933,-2.7015,-2.7053,-2.7047,-2.7049,-2.707,-2.7066,-2.7052,-2.706,-2.6845,-2.7044,-2.7042,-2.7041,-2.704,-2.704,-2.6249,-2.6311,-2.637,-2.645,-2.6497,-2.6552,-2.6615,-2.665,-2.6722,-2.6809,-2.6818,-2.6912,-2.6975,-2.7084,-2.7126,-2.7201,-2.718,-2.721,-2.7218,-2.7224,-2.7229,-2.7041,-2.7216,-2.7216,-2.7215,-2.7215,-2.7215,0,-2.6411,-2.6449,-2.6521,-2.6604,-2.6667,-2.6655,-2.6721,-2.6774,-2.6857,-2.6915,-2.6983,-2.7084,-2.7166,-2.7214,-2.7297,-2.7348,-2.7348,-2.7369,-2.7365,-2.7374,-2.7243,-2.7217,-2.7368,-2.7368,-2.7368,-2.7368,-2.7368,-2.7368,-2.6502,-2.6606,-2.6624,-2.6752,-2.679,-2.6881,-2.6919,-2.6971,-2.7018,-2.713,-2.7198,-2.7228,-2.7283,-2.7371,-2.7446,-2.7459,-2.7489,-2.7513,-2.7523,-2.7399,-2.7383,-2.7368,-2.7344,-2.7519,-2.752,-2.7648,-2.7649,-2.765]},{"header":{"parameterUnit":"m.s-1","parameterCategory":1,"la1":30.2991,"la2":30.254,"lo1":-89.0895,"lo2":-89.0444,"dy":0.0017,"dx":0.0017,"nx":28,"ny":28,"refTime":"2025-12-23T09:00:00:Z","depth":0,"parameterNumber":3,"parameterNumberName":"V-component_of_WINDS"},"data":[0,0,0,0,0,0,0,0,0,0,0,0,0,0,0,0,0,0,0,0,0,0,0,0,0,0,0,0,0,0,0,0,0,0,0,0,0,0,0,0,0,0,0,0,0,0,0,0,0,0,0,0,0,0,0,0,0,0,-0.9472,-0.9472,0,-0.946,-0.946,-0.946,-0.9433,-0.9433,-0.9432,-0.9432,-0.942,-0.942,-0.942,0,0,0,0,0,0,0,0,0,0,0,0,0,-0.9472,-0.9472,-0.9472,-0.9472,-0.9472,-0.946,-0.946,-0.946,-0.9433,-0.9433,-0.9432,-0.9431,-0.942,-0.942,-0.942,0,0,0,0,0,0,0,0,0,0,0,0,0,-0.9467,-0.9472,-0.9472,-0.9457,-0.9456,-0.946,-0.946,-0.946,-0.9433,-0.9433,-0.9432,-0.9431,-0.942,-0.942,-0.942,-0.9438,0,0,-0.9421,-0.9421,0,0,0,0,0,0,0,0,-0.9467,-0.9467,-0.946,-0.9458,-0.9457,-0.9447,-0.9456,-0.9453,-0.9434,-0.9442,-0.9432,-0.9431,-0.943,-0.9429,-0.9429,-0.9438,-0.9437,-0.9421,-0.9421,-0.9421,-0.9421,0,0,0,0,0,0,0,-0.9468,-0.9468,-0.9467,-0.946,-0.9458,-0.9451,-0.9449,-0.9455,-0.9441,-0.9441,-0.9439,-0.9438,-0.9429,-0.9428,-0.9428,-0.9437,-0.9421,-0.9421,-0.9422,-0.9422,-0.946,-0.9461,0,0,0,0,0,0,-0.947,-0.9468,-0.9468,-0.9467,-0.946,-0.9452,-0.945,-0.9451,-0.944,-0.9438,-0.9439,-0.9437,-0.9428,-0.9428,-0.9428,-0.9448,-0.9421,-0.9422,-0.9422,-0.9459,-0.946,-0.9461,0,0,0,0,0,0,-0.947,-0.9471,-0.9468,-0.9467,-0.9466,-0.9452,-0.9454,-0.9451,-0.9451,-0.9439,-0.9436,-0.9441,-0.9428,-0.9427,-0.9436,-0.9447,-0.9422,-0.9422,-0.9458,-0.946,-0.9461,-0.9489,0,0,0,0,0,0,-0.947,-0.9471,-0.9478,-0.9467,-0.9466,-0.9477,-0.9455,-0.9452,-0.9452,-0.9449,-0.944,-0.9438,-0.9427,-0.9435,-0.9436,-0.9447,-0.9422,-0.9457,-0.9459,-0.946,-0.9487,-0.9491,-0.9494,0,0,0,0,0,-0.9471,-0.9486,-0.9478,-0.9478,-0.9475,-0.9478,-0.9477,-0.9464,-0.9453,-0.9459,-0.9451,-0.9438,-0.9446,-0.9437,-0.9437,-0.9448,-0.9456,-0.9458,-0.946,-0.9485,-0.949,-0.9494,0,0,0,0,0,0,-0.9499,-0.9485,-0.9476,-0.9489,-0.9484,-0.9473,-0.9481,-0.947,-0.9469,-0.9467,-0.945,-0.9449,-0.9459,-0.9455,-0.9445,-0.9465,-0.9449,-0.9451,-0.9468,-0.9472,-0.9476,-0.9477,-0.9423,0,0,0,0,0,-0.9507,-0.951,-0.9498,-0.951,-0.9509,-0.9495,-0.9496,-0.9486,-0.9481,-0.948,-0.9472,-0.9468,-0.9469,-0.947,-0.9471,-0.9486,-0.9483,-0.9494,-0.9498,-0.9501,-0.9503,-0.951,-0.9514,-0.9467,-0.9467,-0.9467,0,0,-0.9523,-0.9515,-0.9519,-0.9516,-0.9511,-0.9515,-0.9494,-0.9499,-0.9502,-0.948,-0.9488,-0.9482,-0.9476,-0.9488,-0.9493,-0.9484,-0.9515,-0.9503,-0.9506,-0.9506,-0.9512,-0.9516,-0.952,-0.9469,-0.9468,-0.9468,0,0,-0.9554,-0.9549,-0.9558,-0.9554,-0.9548,-0.9539,-0.9541,-0.9531,-0.9526,-0.9534,-0.9517,-0.952,-0.9523,-0.9519,-0.9518,-0.9546,-0.9534,-0.9547,-0.9567,-0.9574,-0.9577,-0.9581,-0.9591,-0.9594,-0.9549,-0.9549,-0.9549,0,-0.9575,-0.958,-0.9565,-0.9571,-0.957,-0.955,-0.9559,-0.9556,-0.955,-0.955,-0.9541,-0.9543,-0.9538,-0.9548,-0.9555,-0.9554,-0.9556,-0.9548,-0.9578,-0.9581,-0.9584,-0.9593,-0.9597,-0.9551,-0.9551,-0.955,-0.955,0,-0.9605,-0.9609,-0.9618,-0.9612,-0.9612,-0.9619,-0.9606,-0.9607,-0.9597,-0.9589,-0.9596,-0.9589,-0.9587,-0.9589,-0.958,-0.9598,-0.9593,-0.9581,-0.9565,-0.959,-0.9599,-0.9602,-0.9553,-0.9552,-0.9552,-0.9552,0,0,-0.9655,-0.964,-0.9643,-0.964,-0.9631,-0.9634,-0.964,-0.9638,-0.964,-0.9636,-0.9641,-0.9643,-0.9632,-0.963,-0.962,-0.9626,-0.9649,-0.9614,-0.9613,-0.962,-0.9668,-0.9677,-0.9681,-0.9641,-0.9641,-0.9642,-0.9668,0,-0.9684,-0.9694,-0.968,-0.9693,-0.9696,-0.9677,-0.9682,-0.9677,-0.967,-0.9671,-0.9663,-0.9664,-0.965,-0.9648,-0.9654,-0.9645,-0.9658,-0.9643,-0.9645,-0.9645,-0.9647,-0.9686,-0.9695,-0.9721,-0.9672,-0.9672,-0.9673,0,-0.9719,-0.9716,-0.9729,-0.9719,-0.9719,-0.9725,-0.9721,-0.9723,-0.9717,-0.9711,-0.9708,-0.9696,-0.9701,-0.9685,-0.9692,-0.9682,-0.9682,-0.9678,-0.9678,-0.9678,-0.966,-0.9686,-0.9729,-0.9732,-0.9678,-0.9677,-0.9677,0,-0.9753,-0.9753,-0.976,-0.9758,-0.9746,-0.975,-0.9745,-0.9738,-0.9738,-0.9735,-0.9734,-0.9732,-0.9731,-0.973,-0.9717,-0.9707,-0.9726,-0.9709,-0.9721,-0.9721,-0.9726,-0.9726,-0.9769,-0.9726,-0.9726,-0.9726,-0.9726,0,-0.9786,-0.9795,-0.9775,-0.978,-0.9789,-0.9773,-0.9783,-0.9776,-0.977,-0.9773,-0.9756,-0.9759,-0.9742,-0.9744,-0.9734,-0.9741,-0.9741,-0.9736,-0.9733,-0.9737,-0.9738,-0.9737,-0.9735,-0.9727,-0.9727,-0.9726,-0.9726,0,-0.9826,-0.9813,-0.982,-0.9808,-0.9805,-0.9812,-0.9802,-0.9805,-0.9796,-0.98,-0.98,-0.9786,-0.9787,-0.9774,-0.9772,-0.9765,-0.9777,-0.9771,-0.9779,-0.9777,-0.979,-0.9789,-0.9834,-0.9839,-0.9793,-0.9794,-0.9794,0,-0.9848,-0.9854,-0.9842,-0.9843,-0.9839,-0.984,-0.9839,-0.9824,-0.9824,-0.9817,-0.9821,-0.982,-0.9819,-0.9821,-0.981,-0.9809,-0.9803,-0.9818,-0.9802,-0.9806,-0.9803,-0.9802,-0.9803,-0.9822,-0.9823,-0.9823,-0.9823,0,-0.9889,-0.9882,-0.9881,-0.9878,-0.9878,-0.9875,-0.9871,-0.9872,-0.9855,-0.9856,-0.9856,-0.9855,-0.9853,-0.9852,-0.9848,-0.9843,-0.983,-0.9828,-0.9831,-0.9835,-0.984,-0.9837,-0.9788,-0.9828,-0.9827,-0.9827,-0.9827,-0.9826,-0.992,-0.9924,-0.9916,-0.9916,-0.9911,-0.9908,-0.991,-0.9902,-0.9901,-0.9898,-0.9889,-0.9891,-0.9884,-0.9877,-0.9873,-0.9874,-0.9866,-0.987,-0.9871,-0.9873,-0.9875,-0.984,-0.9874,-0.9873,-0.9873,-0.9873,-0.9873,0,-0.9959,-0.9953,-0.9953,-0.9947,-0.9947,-0.9935,-0.993,-0.993,-0.9932,-0.9926,-0.9925,-0.9925,-0.9924,-0.9913,-0.9911,-0.9914,-0.9908,-0.9914,-0.9914,-0.9912,-0.9882,-0.988,-0.9919,-0.9919,-0.9919,-0.9919,-0.9919,-0.9919,-0.998,-0.9986,-0.9978,-0.9982,-0.9976,-0.9977,-0.9975,-0.9972,-0.9967,-0.9968,-0.9967,-0.996,-0.9952,-0.9949,-0.9948,-0.9944,-0.9944,-0.9952,-0.9947,-0.9919,-0.9915,-0.9911,-0.9908,-0.9952,-0.9952,-0.9977,-0.9978,-0.9978]}]]